Regional Weather Roundup
Issued by NWS

Home | Current Version | Previous Version | Graphics & Text | Print | Product List | Glossary On
Versions: 1 2 3 4 5 6 7 8 9 10 11 12 13 14 15 16 17 18 19 20 21 22 23 24 25 26 27 28 29 30 31 32 33 34 35 36 37 38 39 40 41 42 43 44 45 46 47 48 49 50
000
ASUS45 KCYS 011810
RWRWY

WYOMING REGIONAL WEATHER ROUNDUP
NATIONAL WEATHER SERVICE CHEYENNE WY
1200 PM MDT WED JUL 01 2015

NOTE:  "FAIR" INDICATES FEW OR NO CLOUDS BELOW 12,000 FEET
WITH NO SIGNIFICANT WEATHER AND/OR OBSTRUCTIONS TO VISIBILITY.

WYZ001-011900-
YELLOWSTONE NATIONAL PARK

CITY           SKY/WX    TMP DP  RH WIND       PRES   REMARKS
LK YELLOWSTONE   N/A     67  51  56 E5        30.35S
6HR MIN TEMP:  48; 6HR MAX TEMP:  70;

W YELLOWSTONE  NOT AVBL

$$
WYZ002>013-054>058-071-098>099-011900-
NORTHERN WYOMING

CITY           SKY/WX    TMP DP  RH WIND       PRES   REMARKS
JACKSON        FAIR      75  54  46 S7        30.24F
CODY           FAIR      81  52  36 N6        30.13S
GREYBULL       FAIR      89  50  26 CALM      30.03S
6HR MIN TEMP:  62; 6HR MAX TEMP:  89;

WORLAND        FAIR      83  53  35 VRB6      30.05F
6HR MIN TEMP:  59; 6HR MAX TEMP:  84;

SHERIDAN       FAIR      85  49  28 N6        30.07S
6HR MIN TEMP:  56; 6HR MAX TEMP:  85;

BUFFALO        FAIR      80  49  33 VRB3      30.14R
6HR MIN TEMP:  61; 6HR MAX TEMP:  81;

GILLETTE       FAIR      82  51  34 N7        30.09S
6HR MIN TEMP:  57; 6HR MAX TEMP:  82;

HULETT         FAIR      77  54  44 W5        30.09S
NEWCASTLE      FAIR      82  45  26 N14G20    30.07S

$$
WYZ014>020-022>026-101>103-011900-
CENTRAL WYOMING

CITY           SKY/WX    TMP DP  RH WIND       PRES   REMARKS
BIG PINEY      FAIR      81  46  29 W8        30.28F
6HR MIN TEMP:  52; 6HR MAX TEMP:  81;

PINEDALE       FAIR      79  45  29 N8        30.29S
DUBOIS         MOCLDY    77  43  29 N8        30.24F
LANDER         FAIR      82  56  40 VRB5      30.13F
6HR MIN TEMP:  58; 6HR MAX TEMP:  82;

RIVERTON       FAIR      81  54  39 SE3       30.15S
6HR MIN TEMP:  62; 6HR MAX TEMP:  81;

CASPER         FAIR      82  50  32 CALM      30.14F
6HR MIN TEMP:  59; 6HR MAX TEMP:  84;

DOUGLAS        FAIR      83  50  31 NE7       30.13S
6HR MIN TEMP:  58; 6HR MAX TEMP:  84;


$$
WYZ021-027>030-104>119-011900-
SOUTHERN WYOMING

CITY           SKY/WX    TMP DP  RH WIND       PRES   REMARKS
EVANSTON       FAIR      83  42  23 N10       30.31S
6HR MIN TEMP:  62; 6HR MAX TEMP:  83;

KEMMERER       FAIR      81  36  19 NW8G17    30.32S
FORT BRIDGER   CLEAR     84  45  24 NW7       30.32S
ROCK SPRINGS   FAIR      81  50  33 N3        30.26F
6HR MIN TEMP:  57; 6HR MAX TEMP:  81;

DIXON          FAIR      75  52  44 W6        30.28S
RAWLINS        FAIR      80  49  33 VRB3      30.26F
6HR MIN TEMP:  54; 6HR MAX TEMP:  80;

SARATOGA       FAIR      79  46  31 N7        30.28S
LARAMIE        FAIR      79  50  36 NE7       30.28F
6HR MIN TEMP:  51; 6HR MAX TEMP:  79;

CHEYENNE       FAIR      81  54  39 VRB5      30.21S
6HR MIN TEMP:  63; 6HR MAX TEMP:  81;

TORRINGTON     FAIR      90  45  21 N7        30.05F
6HR MIN TEMP:  64; 6HR MAX TEMP:  90;

PINE BLUFFS    FAIR      82  52  34 N10G18    30.15S

$$



USA.gov is the U.S. government's official web portal to all federal, state and local government web resources and services.